Regional Weather Roundup
Issued by NWS Albany, NY

Home | Current Version | Previous Version | Graphics & Text | Print | Product List | Glossary Off
Versions: 1 2 3 4 5 6 7 8 9 10 11 12 13 14 15 16 17 18 19 20 21 22 23 24 25 26 27 28 29 30 31 32 33 34 35 36 37 38 39 40 41 42 43 44 45 46 47 48 49 50

000
ASUS41 KALY 092010
RWRALY

NEW YORK STATE HOURLY WEATHER ROUNDUP
NATIONAL WEATHER SERVICE ALBANY NY
300 PM EST TUE FEB 09 2016

NOTE: "FAIR" INDICATES FEW OR NO CLOUDS BELOW 12,000 FEET WITH NO
SIGNIFICANT WEATHER AND/OR NO OBSTRUCTIONS TO VISIBILITY.

NYZ032-033-038>043-046>054-057>066-NYZ062>081-092100-
EAST


CITY           SKY/WX    TMP DP  RH WIND       PRES   REMARKS
ALBANY         PTSUNNY   32  19  58 CALM      29.55F
GLENS FALLS    CLOUDY    27  18  69 SE3       29.56S
POUGHKEEPSIE   CLOUDY    33  20  58 CALM      29.56S
NEWBURGH       MOSUNNY   30  23  74 VRB5      29.55S WCI  25
MONTGOMERY     CLOUDY    32  22  66 S5        29.54S WCI  27
WHITE PLAINS   PTSUNNY   30  22  72 SE3       29.55S
ISLIP          PTSUNNY   33  24  69 N7        29.56S WCI  27
NEW YORK CITY  PTSUNNY   34  21  60 NE6       29.57S WCI  29
CENTRAL PARK   CLOUDY    35  22  58 CALM      29.58F
$$

NYZ005>009-017-018-044>046-055-056-092100-
CENTRAL


CITY           SKY/WX    TMP DP  RH WIND       PRES   REMARKS
FULTON         LGT SNOW  33  26  75 SE3       29.49S
SYRACUSE       CLOUDY    30  26  85 E6        29.49S WCI  24
ROME           LGT SNOW  28  22  78 E7        29.52F WCI  21
ELMIRA         CLOUDY    40  30  67 VRB5      29.45F
BINGHAMTON     CLOUDY    32  27  81 VRB3      29.45S
MONTICELLO     CLOUDY    30  25  80 SW9       29.49S WCI  22
$$

NYZ026>034-041>043-092100-
NORTH


CITY           SKY/WX    TMP DP  RH WIND       PRES   REMARKS
WATERTOWN      CLOUDY    29  23  78 NE10      29.51S WCI  20
FORT DRUM      NOT AVBL
MASSENA        LGT SNOW  23  17  78 NE16      29.58F WCI  10
SARANAC LAKE   CLOUDY    26  19  74 CALM      29.43F
PLATTSBURGH    CLOUDY    26  19  74 E5        29.57S WCI  20
$$

NYZ001>004-010>016-019>021-092100-
WEST


CITY           SKY/WX    TMP DP  RH WIND       PRES   REMARKS
NIAGARA FALLS  CLOUDY    37  28  70 SW17      29.48S WCI  27
BUFFALO        CLOUDY    36  29  75 W16       29.48S WCI  26
DUNKIRK        CLOUDY    34  28  79 SW17G23   29.52R WCI  23
JAMESTOWN      CLOUDY    30  21  69 SW9       29.46S WCI  22
WELLSVILLE     CLOUDY    34  24  67 NW12      29.43S WCI  25
ROCHESTER      CLOUDY    40  29  64 NW14      29.47S WCI  32
PENN YAN       CLOUDY    36  31  82 VRB3      29.46S
$$

             KEY
       WCI = WIND CHILL INDEX
       VSB = VISIBILITY
       HX  = HEAT INDEX
$$



USA.gov is the U.S. government's official web portal to all federal, state and local government web resources and services.